Location: Unspecified
(0.0000°N, 0.0000°E)
Time: 13:48:17
(UTC+00:00)

Amateur Radio Satellites - All Passes

Search period start: 23 February 2017 13:18
Search period end: 24 February 2017 13:18
Location: Unspecified, 0.0000°N, 0.0000°E

Satellite Date Start Highest point End Downlink Frequencies (MHz)
Time Altitude Azimuth
ITUPSAT 1 23 Feb 13:29:17 13:31:16 12° 103° (ESE) 13:33:15 437.325
SRMSAT 23 Feb 13:33:29 13:34:08 10° 185° (S) 13:34:47 437.500
BEESAT 23 Feb 13:36:34 13:39:33 17° 103° (ESE) 13:42:33 436.000
AO-7 23 Feb 13:57:46 14:03:12 19° 73° (ENE) 14:08:35 .
AO-85 23 Feb 14:17:09 14:19:05 13° 69° (ENE) 14:21:07 145.980
MOZHAYETS 4 23 Feb 14:19:35 14:22:16 16° 102° (ESE) 14:24:57
Oscar 19 23 Feb 14:19:44 14:22:08 13° 257° (WSW) 14:24:33 437.125/150
JUGNU 23 Feb 14:27:27 14:31:28 19° 165° (SSE) 14:35:27 437.505
Gurwin Techsat 1B 23 Feb 14:44:30 14:47:28 15° 257° (WSW) 14:50:27 435.225
ITAMSAT 1 23 Feb 14:45:22 14:50:30 67° 77° (ENE) 14:55:39 435.822/435.867
NO-84 23 Feb 14:50:54 14:53:26 28° 122° (ESE) 14:56:00 435.350 FM
PCSat 23 Feb 15:01:13 15:06:31 60° 109° (ESE) 15:11:50 145.827
ITUPSAT 1 23 Feb 15:04:34 15:08:49 33° 282° (WNW) 15:13:04 437.325
KKS-1 23 Feb 15:09:00 15:10:53 12° 103° (ESE) 15:12:46 437.445
BEESAT 23 Feb 15:13:12 15:17:02 25° 283° (WNW) 15:20:55 436.000
SRMSAT 23 Feb 15:23:05 15:24:31 11° 174° (S) 15:25:57 437.500
RS-15 23 Feb 15:23:13 15:33:32 40° 110° (ESE) 15:44:13 29.354- 29.394
AO-7 23 Feb 15:47:24 15:55:32 56° 254° (WSW) 16:03:40 .
STARS 23 Feb 15:48:57 15:51:41 16° 103° (ESE) 15:54:25 437.465
MOZHAYETS 4 23 Feb 15:55:30 15:59:09 24° 282° (WNW) 16:02:48
AO-85 23 Feb 15:55:49 15:59:11 24° 247° (WSW) 16:02:46 145.980
JUGNU 23 Feb 16:15:15 16:20:50 43° 160° (SSE) 16:26:22 437.505
KKS-1 23 Feb 16:43:19 16:47:09 29° 282° (WNW) 16:51:02 437.445
CUBESAT XI-V 23 Feb 16:47:39 16:52:04 50° 282° (WNW) 16:56:32 437.345
BEESAT 3 23 Feb 16:52:03 16:55:50 44° 68° (ENE) 16:59:35 437.485
M-CUBED/EXP-1 PRIME 23 Feb 17:01:44 17:05:54 71° 286° (WNW) 17:10:23 437.505
XW-2F 23 Feb 17:05:58 17:08:12 15° 79° (ENE) 17:10:25 145.980 - 146.000
KAITUO 1B 23 Feb 17:06:04 17:07:23 12° 78° (ENE) 17:08:42 145.475/437.950
XW-2D 23 Feb 17:08:44 17:11:24 18° 78° (ENE) 17:14:02 145.860 - 145.880
SRMSAT 23 Feb 17:10:20 17:14:33 20° 165° (SSE) 17:18:47 437.500
XW-2B 23 Feb 17:13:30 17:16:22 20° 79° (ENE) 17:19:15 145.730 - 145.750
Tancredo 1 23 Feb 17:15:28 17:17:49 19° 54° (NE) 17:20:10 437.200
CUTE-I 23 Feb 17:16:36 17:20:56 26° 77° (ENE) 17:25:16 437.470
DOVE 4 23 Feb 17:21:31 17:25:26 33° 79° (E) 17:29:12 437.250
XW-2C 23 Feb 17:21:36 17:24:54 28° 79° (E) 17:28:12 145.795 - 145.815
STARS 23 Feb 17:24:21 17:27:45 22° 282° (WNW) 17:31:10 437.465
BEESAT 2 23 Feb 17:25:08 17:28:53 39° 68° (ENE) 17:32:37 435.950
RS-15 23 Feb 17:35:24 17:45:29 37° 292° (WNW) 17:56:07 29.354- 29.394
LilacSat-2 23 Feb 17:35:29 17:39:14 51° 79° (E) 17:42:58 437.200
NUDT-PHONESAT 23 Feb 17:41:33 17:45:07 44° 79° (ENE) 17:48:41 437.300
STRAND 1 23 Feb 17:56:54 17:58:41 12° 103° (ESE) 18:00:27 437.568
JUGNU 23 Feb 18:04:03 18:09:52 67° 339° (NNW) 18:15:41 437.505
ISS 23 Feb 18:19:49 18:22:49 35° 235° (SW) 18:25:50 437.550
KAITUO 1B 23 Feb 18:38:19 18:41:08 20° 259° (W) 18:43:57 145.475/437.950
XW-2F 23 Feb 18:39:42 18:42:05 16° 259° (WSW) 18:44:27 145.980 - 146.000
XW-2D 23 Feb 18:43:26 18:45:19 13° 259° (WSW) 18:47:12 145.860 - 145.880
HO-68 23 Feb 18:48:51 18:55:40 46° 76° (ENE) 19:02:26 435.675
XW-2B 23 Feb 18:48:56 18:50:18 12° 259° (WSW) 18:51:39 145.730 - 145.750
CUTE 1.7 + AOD 2 23 Feb 18:50:12 18:54:07 35° 79° (ENE) 18:58:01 437.475
Tancredo 1 23 Feb 18:52:47 18:53:53 11° 234° (SW) 18:55:00 437.200
CUTE-I 23 Feb 18:56:52 19:00:42 20° 257° (WSW) 19:04:31 437.470
SRMSAT 23 Feb 18:58:21 19:04:03 48° 159° (SSE) 19:09:47 437.500
UWE-3 23 Feb 19:27:49 19:31:05 21° 78° (ENE) 19:34:23 435.000/436.395/437.385
XW-2A 23 Feb 19:30:47 19:33:25 22° 259° (W) 19:36:03 145.665 - 145.685
STRAND 1 23 Feb 19:32:48 19:37:34 40° 282° (WNW) 19:42:21 437.568
AAUSAT CUBESAT 2 23 Feb 19:47:26 19:51:33 56° 79° (E) 19:55:37 437.432
SEEDS 23 Feb 19:51:32 19:55:38 47° 258° (WSW) 19:59:42 437.485
ZACube-1 23 Feb 19:53:36 19:57:09 25° 78° (ENE) 20:00:45 437.345
JUGNU 23 Feb 19:54:17 19:59:03 26° 342° (NNW) 20:03:49 437.505
CUBEBUG 2 23 Feb 20:21:35 20:25:19 31° 259° (W) 20:29:07 437.445
PRISM 23 Feb 20:35:46 20:39:12 26° 102° (ESE) 20:42:38 437.425
HO-68 23 Feb 20:38:15 20:43:02 19° 255° (WSW) 20:47:48 435.675
AO-73 23 Feb 20:42:37 20:46:51 66° 258° (WSW) 20:51:11 145.935
SO-50 23 Feb 20:45:20 20:49:56 47° 112° (ESE) 20:54:27 436.795
SRMSAT 23 Feb 20:47:24 20:53:17 62° 339° (NNW) 20:59:11 437.500
Oscar 11 23 Feb 20:52:10 20:56:26 56° 258° (WSW) 21:00:41 .
UWE-3 23 Feb 21:04:53 21:07:16 15° 259° (WSW) 21:09:43 435.000/436.395/437.385
ZACube-1 23 Feb 21:31:19 21:33:11 13° 259° (W) 21:35:03 437.345
O/OREOS (USA 219) 23 Feb 21:35:54 21:40:07 41° 105° (ESE) 21:44:19 437.305
DELFI C3 23 Feb 21:39:26 21:43:17 46° 258° (WSW) 21:47:06 145.870
UNISAT 6 23 Feb 21:41:37 21:46:14 74° 102° (ESE) 21:50:46 437.425
TIGRISAT 23 Feb 21:42:37 21:47:13 69° 102° (ESE) 21:51:43 435.000
JUGNU 23 Feb 21:46:18 21:48:43 12° 350° (N) 21:51:08 437.505
FO-29 23 Feb 21:56:08 22:02:32 42° 101° (ESE) 22:08:13 435.910
YUBILEINY 23 Feb 21:56:39 22:05:14 66° 87° (E) 22:13:49 435.215
PRISM 23 Feb 22:13:05 22:14:12 11° 282° (WNW) 22:15:20 437.425
ESTCUBE 1 23 Feb 22:31:51 22:35:38 26° 78° (ENE) 22:39:24 437.505/2401.250
SRMSAT 23 Feb 22:37:55 22:42:41 24° 343° (NNW) 22:47:28 437.500
AIST 2D 23 Feb 22:55:50 22:59:20 68° 101° (E) 23:02:49 435.315
DUCHIFAT 1 23 Feb 22:58:59 23:02:39 28° 102° (ESE) 23:06:17 145.980
EO-79 23 Feb 23:06:53 23:11:00 48° 102° (ESE) 23:15:06 145.935-145.965
VELOX 1 23 Feb 23:06:54 23:09:57 19° 78° (ENE) 23:13:00 145.980
POLYITAN 1 23 Feb 23:23:35 23:27:51 88° 99° (E) 23:32:08 437.675
NANOSAT C BR1 23 Feb 23:25:02 23:29:16 83° 99° (E) 23:33:32 145.865
QB50P2 23 Feb 23:26:27 23:30:42 76° 282° (WNW) 23:34:59 145.880/145.840
SPROUT 23 Feb 23:29:35 23:33:15 29° 78° (ENE) 23:36:55 437.525
50 SAT 23 Feb 23:37:55 23:41:02 29° 79° (ENE) 23:44:06 437.505
FO-29 23 Feb 23:42:42 23:47:04 18° 286° (WNW) 23:51:12 435.910
YUBILEINY 23 Feb 23:57:45 00:01:38 14° 267° (W) 00:05:33 435.215
BUGSAT 1 24 Feb 00:03:46 00:07:58 66° 102° (ESE) 00:12:10 437.445
ESTCUBE 1 24 Feb 00:09:49 00:12:09 14° 257° (WSW) 00:14:30 437.505/2401.250
SRMSAT 24 Feb 00:30:11 00:32:36 12° 351° (N) 00:35:01 437.500
DUCHIFAT 1 24 Feb 00:36:59 00:38:02 11° 282° (WNW) 00:39:06 145.980
DX 1 24 Feb 00:40:00 00:44:15 55° 257° (WSW) 00:48:28 434.975-435.025
VELOX 1 24 Feb 00:43:05 00:46:09 19° 258° (WSW) 00:49:11 145.980
UKube-1 24 Feb 00:56:08 01:00:18 50° 258° (WSW) 01:04:28 .
SPROUT 24 Feb 01:08:02 01:08:53 11° 258° (WSW) 01:09:44 437.525
Oscar 19 24 Feb 01:11:32 01:16:39 85° 283° (WNW) 01:21:50 437.125/150
JUGNU 24 Feb 01:26:03 01:28:59 14° 11° (NNE) 01:31:56 437.505
Gurwin Techsat 1B 24 Feb 01:40:55 01:46:13 83° 283° (WNW) 01:51:34 435.225
ITAMSAT 1 24 Feb 01:45:18 01:46:18 11° 103° (ESE) 01:47:17 435.822/435.867
ITUPSAT 1 24 Feb 01:49:38 01:53:30 25° 77° (ENE) 01:57:22 437.325
BEESAT 24 Feb 01:57:10 02:01:24 32° 77° (ENE) 02:05:37 436.000
PCSat 24 Feb 01:57:27 01:59:30 12° 70° (ENE) 02:01:34 145.827
AO-7 24 Feb 02:22:22 02:29:27 32° 107° (ESE) 02:36:31 .
AO-85 24 Feb 02:28:02 02:32:33 31° 113° (ESE) 02:36:48 145.980
NO-84 24 Feb 02:34:30 02:38:37 37° 58° (ENE) 02:42:41 435.350 FM
MOZHAYETS 4 24 Feb 02:35:04 02:38:55 26° 78° (ENE) 02:42:46
RS-15 24 Feb 03:06:26 03:16:43 34° 68° (ENE) 03:26:30 29.354- 29.394
JUGNU 24 Feb 03:13:29 03:18:36 29° 19° (NNE) 03:23:44 437.505
KKS-1 24 Feb 03:20:19 03:23:20 18° 78° (ENE) 03:26:21 437.445
ITAMSAT 1 24 Feb 03:20:30 03:25:27 45° 283° (WNW) 03:30:26 435.822/435.867
ITUPSAT 1 24 Feb 03:27:58 03:31:03 17° 257° (WSW) 03:34:08 437.325
CUBESAT XI-V 24 Feb 03:30:57 03:33:19 14° 78° (ENE) 03:35:39 437.345
BEESAT 24 Feb 03:36:45 03:38:53 13° 257° (WSW) 03:41:02 436.000
PCSat 24 Feb 03:37:34 03:42:39 43° 250° (WSW) 03:47:44 145.827
STARS 24 Feb 03:59:07 04:02:30 22° 78° (ENE) 04:05:51 437.465
AO-85 24 Feb 04:09:50 04:12:42 15° 291° (WNW) 04:15:28 145.980
SRMSAT 24 Feb 04:09:57 04:13:14 15° 12° (NNE) 04:16:31 437.500
MOZHAYETS 4 24 Feb 04:13:15 04:15:48 15° 258° (WSW) 04:18:21
NO-84 24 Feb 04:14:16 04:16:10 12° 238° (WSW) 04:18:01 435.350 FM
AO-7 24 Feb 04:14:37 04:21:50 34° 286° (WNW) 04:29:07 .
BEESAT 3 24 Feb 04:43:58 04:47:35 43° 112° (ESE) 04:51:14 437.485
Tancredo 1 24 Feb 04:48:59 04:50:19 12° 126° (SE) 04:51:39 437.200
KKS-1 24 Feb 04:56:29 04:59:37 19° 257° (WSW) 05:02:46 437.445
XW-2F 24 Feb 05:00:16 05:01:34 11° 101° (ESE) 05:02:51 145.980 - 146.000
JUGNU 24 Feb 05:01:47 05:07:46 78° 21° (NNE) 05:13:47 437.505
M-CUBED/EXP-1 PRIME 24 Feb 05:02:22 05:06:03 69° 255° (WSW) 05:09:28 437.505
XW-2D 24 Feb 05:03:02 05:05:06 14° 101° (ESE) 05:07:10 145.860 - 145.880
CUBESAT XI-V 24 Feb 05:06:21 05:10:25 29° 258° (WSW) 05:14:26 437.345
XW-2B 24 Feb 05:07:43 05:10:06 16° 101° (ESE) 05:12:30 145.730 - 145.750
XW-2C 24 Feb 05:15:41 05:18:39 22° 101° (ESE) 05:21:37 145.795 - 145.815
RS-15 24 Feb 05:17:56 05:28:41 43° 250° (WSW) 05:39:01 29.354- 29.394
BEESAT 2 24 Feb 05:18:16 05:21:55 40° 112° (ESE) 05:25:34 435.950
LilacSat-2 24 Feb 05:30:01 05:33:36 40° 101° (E) 05:37:10 437.200
NUDT-PHONESAT 24 Feb 05:33:29 05:36:50 32° 101° (E) 05:40:10 437.300
STARS 24 Feb 05:36:02 05:38:33 15° 257° (WSW) 05:41:05 437.465
DOVE 4 24 Feb 05:40:16 05:45:18 70° 102° (ESE) 05:50:33 437.250
ISS 24 Feb 05:53:22 05:56:37 64° 305° (NW) 05:59:52 437.550
CUTE-I 24 Feb 05:54:51 06:00:12 77° 103° (ESE) 06:05:34 437.470
SRMSAT 24 Feb 05:57:42 06:02:59 32° 19° (NNE) 06:08:15 437.500
Tancredo 1 24 Feb 06:23:58 06:26:24 20° 306° (NW) 06:28:50 437.200
STRAND 1 24 Feb 06:26:48 06:31:15 30° 77° (ENE) 06:35:40 437.568
KAITUO 1B 24 Feb 06:30:25 06:33:33 26° 281° (W) 06:36:39 145.475/437.950
XW-2F 24 Feb 06:32:41 06:35:27 20° 281° (WNW) 06:38:13 145.980 - 146.000
XW-2D 24 Feb 06:36:38 06:39:02 16° 281° (WNW) 06:41:26 145.860 - 145.880
HO-68 24 Feb 06:40:38 06:47:08 38° 105° (ESE) 06:53:39 435.675
XW-2B 24 Feb 06:41:58 06:44:01 14° 282° (WNW) 06:46:06 145.730 - 145.750
JUGNU 24 Feb 06:51:19 06:56:53 39° 200° (SSW) 07:02:27 437.505
XW-2C 24 Feb 06:52:08 06:52:36 10° 281° (WNW) 06:53:03 145.795 - 145.815
CUTE 1.7 + AOD 2 24 Feb 06:56:21 07:00:19 42° 101° (ESE) 07:04:17 437.475
CUBEBUG 2 24 Feb 06:58:32 07:01:33 17° 101° (E) 07:04:30 437.445
XW-2A 24 Feb 07:12:58 07:16:15 45° 281° (W) 07:19:33 145.665 - 145.685
UWE-3 24 Feb 07:38:22 07:42:26 32° 101° (ESE) 07:46:24 435.000/436.395/437.385
SRMSAT 24 Feb 07:46:16 07:52:17 85° 21° (NNE) 07:58:16 437.500
AAUSAT CUBESAT 2 24 Feb 07:50:50 07:54:53 63° 101° (E) 07:58:57 437.432
SEEDS 24 Feb 07:56:52 08:00:43 38° 281° (WNW) 08:04:35 437.485
ZACube-1 24 Feb 08:03:05 08:07:08 36° 101° (E) 08:11:08 437.345
STRAND 1 24 Feb 08:07:04 08:10:08 16° 257° (WSW) 08:13:12 437.568
HO-68 24 Feb 08:29:12 08:34:32 23° 285° (WNW) 08:39:54 435.675
CUBEBUG 2 24 Feb 08:34:13 08:37:53 23° 282° (WNW) 08:41:30 437.445
PRISM 24 Feb 08:38:22 08:41:56 28° 78° (ENE) 08:45:27 437.425
YUBILEINY 24 Feb 08:38:30 08:42:24 14° 93° (E) 08:46:16 435.215
JUGNU 24 Feb 08:42:31 08:46:21 17° 194° (SSW) 08:50:11 437.505
AO-73 24 Feb 08:52:17 08:56:31 47° 282° (WNW) 09:00:41 145.935
SO-50 24 Feb 08:57:54 09:02:22 87° 63° (ENE) 09:06:54 436.795
Oscar 11 24 Feb 09:01:00 09:05:03 41° 281° (WNW) 09:09:06 .
UWE-3 24 Feb 09:17:19 09:18:34 11° 283° (WNW) 09:19:48 435.000/436.395/437.385
FO-29 24 Feb 09:28:31 09:33:08 21° 74° (ENE) 09:38:07 435.910
SRMSAT 24 Feb 09:36:09 09:41:33 35° 199° (SSW) 09:46:57 437.500
DELFI C3 24 Feb 09:37:43 09:41:30 49° 281° (WNW) 09:45:20 145.870
O/OREOS (USA 219) 24 Feb 09:46:27 09:51:02 76° 76° (ENE) 09:55:37 437.305
UNISAT 6 24 Feb 09:54:52 09:59:11 72° 259° (W) 10:03:34 437.425
TIGRISAT 24 Feb 09:55:38 09:59:58 78° 258° (WSW) 10:04:22 435.000
YUBILEINY 24 Feb 10:30:03 10:38:48 68° 273° (W) 10:47:33 435.215
JUGNU 24 Feb 10:35:35 10:36:22 10° 184° (S) 10:37:10 437.505
AIST 2D 24 Feb 10:42:14 10:45:31 37° 79° (E) 10:48:47 435.315
ESTCUBE 1 24 Feb 10:45:23 10:49:34 40° 102° (ESE) 10:53:46 437.505/2401.250
DUCHIFAT 1 24 Feb 11:04:13 11:07:59 33° 78° (ENE) 11:11:45 145.980
FO-29 24 Feb 11:12:17 11:17:45 35° 259° (W) 11:23:52 435.910
EO-79 24 Feb 11:12:54 11:17:02 59° 78° (ENE) 11:21:09 145.935-145.965
VELOX 1 24 Feb 11:17:36 11:21:20 27° 102° (ESE) 11:25:04 145.980
50 SAT 24 Feb 11:24:23 11:26:41 17° 102° (ESE) 11:28:58 437.505
SRMSAT 24 Feb 11:27:41 11:31:13 16° 193° (SSW) 11:34:44 437.500
POLYITAN 1 24 Feb 11:29:52 11:34:03 74° 258° (WSW) 11:38:15 437.675
NANOSAT C BR1 24 Feb 11:30:45 11:34:57 81° 259° (W) 11:39:08 145.865
QB50P2 24 Feb 11:32:48 11:36:58 60° 258° (WSW) 11:41:06 145.880/145.840
SPROUT 24 Feb 11:36:22 11:40:20 37° 102° (ESE) 11:44:19 437.525
BUGSAT 1 24 Feb 12:06:58 12:10:57 73° 78° (ENE) 12:14:57 437.445
Oscar 19 24 Feb 12:08:30 12:11:24 15° 77° (ENE) 12:14:18 437.125/150
JUGNU 24 Feb 12:24:59 12:26:36 11° 173° (S) 12:28:13 437.505
Gurwin Techsat 1B 24 Feb 12:41:31 12:45:06 18° 77° (ENE) 12:48:39 435.225
DX 1 24 Feb 12:49:37 12:53:42 40° 282° (WNW) 12:57:49 434.975-435.025
VELOX 1 24 Feb 12:55:28 12:57:31 13° 282° (WNW) 12:59:34 145.980
50 SAT 24 Feb 12:58:31 12:59:32 11° 281° (WNW) 13:00:34 437.505
UKube-1 24 Feb 13:04:37 13:08:36 38° 282° (WNW) 13:12:37 .
